[[{"header":{"parameterUnit":"m.s-1","parameterCategory":2,"la1":30.2991,"la2":30.254,"lo1":-89.0895,"lo2":-89.0444,"dy":0.0017,"dx":0.0017,"nx":28,"ny":28,"refTime":"2025-08-08T09:00:00:Z","depth":"0","parameterNumber":2,"parameterNumberName":"U-component_of_CURRENTS"},"data":[0,0,0,0,0,0,0,0,0,0,0,0,0,0,0,0,0,0,0,0,0,0,0,0,0,0,0,0,0,0,0,0,0,0,0,0,0,0,0,0,0,0,0,0,0,0,0,0,0,0,0,0,0,0,0,0,0,0,0.2695,0.2695,0,0.271,0.271,0.271,0.2693,0.2693,0.2693,0.2692,0.2671,0.2671,0.2671,0,0,0,0,0,0,0,0,0,0,0,0,0,0.2657,0.2657,0.2695,0.2695,0.2695,0.271,0.271,0.271,0.2693,0.2693,0.2692,0.2692,0.2671,0.2671,0.2671,0,0,0,0,0,0,0,0,0,0,0,0,0,0.2671,0.2658,0.2695,0.2691,0.2691,0.271,0.271,0.271,0.2694,0.2693,0.2692,0.2692,0.2671,0.2671,0.2671,0.2682,0,0,0.267,0.267,0,0,0,0,0,0,0,0,0.267,0.2672,0.2691,0.2691,0.2691,0.2701,0.2689,0.27,0.2694,0.269,0.2692,0.2691,0.268,0.2679,0.268,0.2681,0.268,0.267,0.267,0.267,0.267,0,0,0,0,0,0,0,0.2669,0.2671,0.2698,0.2691,0.2691,0.269,0.2691,0.2691,0.2686,0.269,0.269,0.2695,0.2679,0.2681,0.268,0.268,0.267,0.267,0.267,0.267,0.2732,0.2734,0,0,0,0,0,0,0.2672,0.267,0.2698,0.2699,0.2681,0.2691,0.2692,0.2697,0.2687,0.2686,0.2696,0.2694,0.2681,0.268,0.2679,0.2731,0.267,0.267,0.267,0.273,0.2732,0.2734,0,0,0,0,0,0,0.2671,0.2674,0.2697,0.2687,0.269,0.2693,0.2698,0.2697,0.2704,0.2692,0.2689,0.2703,0.2681,0.2679,0.2693,0.2729,0.267,0.2669,0.2728,0.2731,0.2733,0.281,0,0,0,0,0,0,0.267,0.2674,0.2677,0.2687,0.2691,0.2719,0.2699,0.2698,0.2709,0.2707,0.2697,0.2694,0.268,0.2694,0.2693,0.2727,0.2669,0.2726,0.2729,0.2732,0.2805,0.2815,0.2823,0,0,0,0,0,0.2669,0.2679,0.2677,0.2681,0.2695,0.272,0.2722,0.272,0.271,0.2721,0.2717,0.2695,0.2715,0.2695,0.2693,0.2729,0.2724,0.2728,0.2732,0.2801,0.2813,0.2823,0,0,0,0,0,0,0.266,0.2678,0.2677,0.269,0.2709,0.2718,0.2729,0.2728,0.2733,0.2731,0.2712,0.271,0.274,0.2724,0.2702,0.2758,0.2718,0.2722,0.2771,0.2782,0.2791,0.2819,0.2669,0,0,0,0,0,0.2661,0.2675,0.2693,0.2705,0.2716,0.2724,0.2733,0.2736,0.2743,0.2745,0.2739,0.274,0.2757,0.2759,0.2766,0.279,0.2799,0.2814,0.2823,0.2831,0.2854,0.2913,0.2929,0.2747,0.2747,0.2747,0,0,0.266,0.2673,0.2679,0.2704,0.2716,0.2747,0.2727,0.2751,0.2778,0.2742,0.2771,0.2771,0.2771,0.2805,0.2817,0.2793,0.2883,0.2836,0.2842,0.2862,0.2919,0.2937,0.2952,0.275,0.275,0.2749,0,0,0.2674,0.268,0.2701,0.2724,0.2753,0.2764,0.2775,0.2794,0.2805,0.2831,0.2824,0.2852,0.2852,0.2877,0.2886,0.295,0.2933,0.2944,0.3009,0.3065,0.3081,0.3095,0.3112,0.3127,0.2945,0.2945,0.2945,0,0.267,0.2703,0.2712,0.2745,0.2771,0.2777,0.2814,0.2833,0.2853,0.2878,0.2849,0.2903,0.2896,0.2966,0.2989,0.2974,0.2987,0.2965,0.3079,0.3093,0.3106,0.312,0.3136,0.2949,0.2949,0.2948,0.2948,0,0.2708,0.2737,0.2755,0.2801,0.2829,0.2863,0.2895,0.2923,0.293,0.2951,0.3012,0.3012,0.3046,0.3051,0.3037,0.3134,0.3105,0.3086,0.3052,0.3129,0.3138,0.3153,0.2955,0.2954,0.2952,0.2951,0,0,0.269,0.2766,0.2772,0.2801,0.2864,0.2884,0.295,0.3011,0.3051,0.3078,0.3136,0.318,0.3182,0.3194,0.3188,0.3236,0.3327,0.3203,0.3204,0.3221,0.3431,0.3365,0.3374,0.3328,0.3332,0.3334,0.3393,0,0.2717,0.2781,0.2822,0.2884,0.292,0.2966,0.3018,0.3075,0.3114,0.3168,0.3209,0.3249,0.3235,0.3245,0.3305,0.3322,0.3373,0.3312,0.3353,0.3354,0.3288,0.3393,0.328,0.332,0.3407,0.341,0.3411,0,0.2743,0.2782,0.2846,0.2923,0.2943,0.2978,0.3065,0.3115,0.3209,0.3244,0.332,0.3336,0.3426,0.3382,0.3492,0.3451,0.3461,0.3468,0.3469,0.3398,0.3318,0.3261,0.3344,0.328,0.3434,0.3432,0.343,0,0.2713,0.2801,0.2847,0.2874,0.2959,0.2995,0.3039,0.3132,0.3185,0.3291,0.3332,0.3438,0.3471,0.3536,0.3555,0.3533,0.365,0.3614,0.3568,0.3561,0.347,0.345,0.3501,0.3706,0.3705,0.3705,0.3705,0,0.2724,0.2758,0.2828,0.2848,0.2895,0.2964,0.3024,0.3095,0.3199,0.3254,0.3356,0.3413,0.3515,0.3579,0.3599,0.3633,0.3691,0.3613,0.3594,0.3489,0.3471,0.3412,0.337,0.3707,0.3707,0.3706,0.3706,0,0.2678,0.2734,0.2778,0.2855,0.2878,0.29,0.2997,0.3035,0.3152,0.3229,0.3263,0.3418,0.3507,0.3583,0.3676,0.367,0.3611,0.3698,0.3548,0.3512,0.34,0.3366,0.3266,0.3157,0.3675,0.3674,0.3673,0,0.266,0.2679,0.2749,0.2758,0.2786,0.2834,0.286,0.2989,0.3038,0.3211,0.3236,0.3374,0.345,0.3581,0.3618,0.3669,0.356,0.356,0.3511,0.3413,0.3362,0.322,0.3125,0.3411,0.3408,0.3406,0.3404,0,0.261,0.2631,0.2655,0.2677,0.2696,0.2728,0.2782,0.2824,0.296,0.3041,0.3149,0.3237,0.3397,0.3431,0.3514,0.3524,0.3394,0.3511,0.3468,0.3225,0.3018,0.2895,0.3326,0.3383,0.3385,0.3387,0.3388,0.3389,0.2552,0.2546,0.2571,0.258,0.2595,0.2597,0.2588,0.2663,0.273,0.2821,0.2982,0.3068,0.3228,0.3359,0.3347,0.3289,0.3255,0.3205,0.319,0.3069,0.2912,0.3282,0.3279,0.3281,0.3282,0.3283,0.3284,0,0.2474,0.2472,0.2472,0.2466,0.2427,0.2484,0.2508,0.2482,0.2497,0.2638,0.2726,0.2884,0.2956,0.3067,0.3113,0.3006,0.286,0.2914,0.2716,0.2651,0.3053,0.2992,0.2855,0.2855,0.2855,0.2855,0.2855,0.2855,0.2434,0.24,0.2395,0.23,0.2285,0.2206,0.2193,0.2189,0.2259,0.2326,0.2421,0.2553,0.2826,0.2962,0.2901,0.2815,0.2585,0.2458,0.2434,0.2767,0.2793,0.2818,0.2755,0.257,0.2569,0.1923,0.1919,0.1915]},{"header":{"parameterUnit":"m.s-1","parameterCategory":2,"la1":30.2991,"la2":30.254,"lo1":-89.0895,"lo2":-89.0444,"dy":0.0017,"dx":0.0017,"nx":28,"ny":28,"refTime":"2025-08-08T09:00:00:Z","depth":"0","parameterNumber":3,"parameterNumberName":"V-component_of_CURRENTS"},"data":[0,0,0,0,0,0,0,0,0,0,0,0,0,0,0,0,0,0,0,0,0,0,0,0,0,0,0,0,0,0,0,0,0,0,0,0,0,0,0,0,0,0,0,0,0,0,0,0,0,0,0,0,0,0,0,0,0,0,0.0005,0.0004,0,-0.0056,-0.0057,-0.0058,-0.0097,-0.0098,-0.0098,-0.0098,-0.0179,-0.0181,-0.0183,0,0,0,0,0,0,0,0,0,0,0,0,0,0.0032,0.0032,0.0005,0.0004,0.0004,-0.0056,-0.0057,-0.0058,-0.0097,-0.0098,-0.0098,-0.0098,-0.0178,-0.0181,-0.0183,0,0,0,0,0,0,0,0,0,0,0,0,0,-0.0001,0.0032,0.0005,-0.0022,-0.0025,-0.0056,-0.0057,-0.0058,-0.0097,-0.0098,-0.0098,-0.0098,-0.0177,-0.018,-0.0183,-0.0201,0,0,-0.0193,-0.0194,0,0,0,0,0,0,0,0,0.0001,-0.0002,-0.0017,-0.002,-0.0023,-0.0068,-0.0077,-0.0106,-0.0097,-0.0072,-0.0098,-0.0098,-0.0142,-0.0148,-0.0162,-0.0204,-0.0208,-0.0193,-0.0195,-0.0196,-0.0197,0,0,0,0,0,0,0,0.0003,-0.0,-0.0021,-0.0018,-0.0022,-0.0049,-0.0054,-0.0083,-0.0108,-0.0074,-0.0077,-0.008,-0.0144,-0.0159,-0.0164,-0.0209,-0.0193,-0.0196,-0.0198,-0.0199,-0.0267,-0.0267,0,0,0,0,0,0,0.0018,0.0002,-0.0019,-0.0023,-0.0009,-0.0049,-0.0055,-0.0055,-0.0107,-0.0114,-0.008,-0.0082,-0.0153,-0.016,-0.0167,-0.0181,-0.0196,-0.0199,-0.0201,-0.0267,-0.0267,-0.0267,0,0,0,0,0,0,0.0019,0.0017,-0.0017,-0.0011,-0.0016,-0.0049,-0.005,-0.0056,-0.0067,-0.0111,-0.0119,-0.0083,-0.0154,-0.0163,-0.0185,-0.0184,-0.0201,-0.0204,-0.0267,-0.0267,-0.0267,-0.0214,0,0,0,0,0,0,0.002,0.0017,0.0021,-0.0009,-0.0016,-0.0026,-0.0049,-0.0057,-0.0068,-0.0071,-0.0116,-0.0124,-0.0154,-0.018,-0.0188,-0.0189,-0.0206,-0.0267,-0.0267,-0.0267,-0.0216,-0.0212,-0.0209,0,0,0,0,0,0.0021,0.0031,0.0021,0.0019,-0.001,-0.0026,-0.0032,-0.0058,-0.0068,-0.0069,-0.0098,-0.0123,-0.0185,-0.0182,-0.0192,-0.0194,-0.0267,-0.0267,-0.0267,-0.0217,-0.0213,-0.0209,0,0,0,0,0,0,0.0044,0.0027,0.0016,0.002,0.0002,-0.0032,-0.0034,-0.0051,-0.0076,-0.0077,-0.012,-0.013,-0.015,-0.0178,-0.0174,-0.0213,-0.0231,-0.0233,-0.019,-0.0186,-0.0183,-0.0164,-0.0209,0,0,0,0,0,0.0052,0.0056,0.0032,0.0035,0.0029,-0.0002,-0.0012,-0.0027,-0.0052,-0.0063,-0.0094,-0.0128,-0.0158,-0.0175,-0.0205,-0.0225,-0.0246,-0.0233,-0.023,-0.0226,-0.0218,-0.0259,-0.0258,-0.0266,-0.0266,-0.0266,0,0,0.0062,0.0053,0.0054,0.004,0.0023,0.0024,-0.0008,-0.0015,-0.0017,-0.0067,-0.0079,-0.0115,-0.016,-0.0182,-0.0194,-0.0205,-0.0232,-0.0226,-0.0223,-0.0216,-0.0259,-0.0258,-0.0257,-0.0266,-0.0266,-0.0266,0,0,0.0088,0.0076,0.009,0.0079,0.0064,0.0045,0.0048,0.002,0.0005,-0.0011,-0.0049,-0.0081,-0.0124,-0.0159,-0.0182,-0.0177,-0.021,-0.0188,-0.0159,-0.0198,-0.0198,-0.0198,-0.0205,-0.0206,-0.0189,-0.0189,-0.0189,0,0.01,0.0115,0.009,0.01,0.01,0.0061,0.0077,0.0054,0.0022,0.0014,-0.0005,-0.0071,-0.0114,-0.0144,-0.0147,-0.0169,-0.0185,-0.0169,-0.0193,-0.0194,-0.0194,-0.0203,-0.0204,-0.0186,-0.0187,-0.0187,-0.0187,0,0.0136,0.0147,0.0155,0.0156,0.0151,0.0158,0.0129,0.012,0.0097,0.0072,0.0041,-0.002,-0.0056,-0.0083,-0.0116,-0.0143,-0.0149,-0.0181,-0.02,-0.019,-0.0199,-0.0202,-0.0183,-0.0183,-0.0184,-0.0185,0,0,0.0172,0.018,0.0184,0.0202,0.0185,0.0191,0.0185,0.0173,0.0183,0.0128,0.0131,0.0053,0.002,-0.0009,-0.0061,-0.0105,-0.0129,-0.0142,-0.0145,-0.0141,-0.0191,-0.0193,-0.0196,-0.0167,-0.0168,-0.0168,-0.0188,0,0.021,0.0251,0.0239,0.0278,0.03,0.0268,0.0271,0.0253,0.0229,0.022,0.0142,0.0122,0.0047,0.0035,-0.0024,-0.0095,-0.0137,-0.0118,-0.0208,-0.021,-0.0208,-0.02,-0.0176,-0.0192,-0.0191,-0.0192,-0.0192,0,0.0255,0.0279,0.0325,0.0356,0.0362,0.0371,0.0385,0.0383,0.0347,0.0329,0.0282,0.0229,0.0162,0.0095,-0.0027,-0.001,-0.0094,-0.016,-0.0163,-0.0185,-0.0217,-0.0207,-0.0198,-0.0336,-0.0197,-0.0196,-0.0196,0,0.0309,0.0345,0.0389,0.0396,0.0414,0.0427,0.0432,0.0415,0.044,0.0398,0.0415,0.0316,0.029,0.016,0.0022,-0.0001,-0.0105,-0.0155,-0.0235,-0.0234,-0.0241,-0.024,-0.0371,-0.0247,-0.0247,-0.0247,-0.0247,0,0.0363,0.04,0.0418,0.0443,0.0504,0.0487,0.0544,0.0531,0.0538,0.058,0.0476,0.0495,0.0303,0.0221,0.0068,-0.0074,-0.0071,-0.0219,-0.0244,-0.022,-0.0217,-0.0361,-0.0459,-0.0248,-0.0248,-0.0248,-0.0248,0,0.0418,0.0425,0.0484,0.0514,0.0532,0.0573,0.0632,0.0675,0.0662,0.0715,0.0711,0.0642,0.0535,0.035,0.016,0.0011,-0.0226,-0.0202,-0.0142,-0.016,-0.0372,-0.0467,-0.0631,-0.0693,-0.0288,-0.0288,-0.0288,0,0.045,0.0485,0.0545,0.059,0.0606,0.0668,0.0717,0.0733,0.079,0.0814,0.0854,0.0777,0.0745,0.0481,0.0206,-0.004,-0.0215,-0.0196,-0.0256,-0.0373,-0.0498,-0.0569,-0.0615,-0.0234,-0.0234,-0.0233,-0.0233,0,0.0517,0.0533,0.0582,0.0672,0.0733,0.0816,0.0887,0.0959,0.0983,0.1037,0.1094,0.1074,0.083,0.0609,0.0262,0.0063,-0.0296,-0.02,-0.035,-0.0489,-0.0547,-0.062,-0.0212,-0.0231,-0.0231,-0.0232,-0.0232,-0.0232,0.0569,0.0616,0.0679,0.0766,0.0842,0.0945,0.1022,0.1115,0.1225,0.1309,0.1285,0.1291,0.0959,0.0502,0.0223,-0.0259,-0.0289,-0.0409,-0.0516,-0.0576,-0.0645,-0.0215,-0.0252,-0.0252,-0.0252,-0.0253,-0.0253,0,0.0637,0.0687,0.077,0.0869,0.0958,0.0987,0.1126,0.1211,0.135,0.1444,0.1499,0.1363,0.0948,0.0493,-0.0139,-0.0491,-0.064,-0.0701,-0.0805,-0.0839,-0.0473,-0.0477,-0.0531,-0.053,-0.053,-0.053,-0.053,-0.053,0.0674,0.0761,0.0797,0.0947,0.1018,0.1139,0.122,0.1353,0.146,0.1582,0.1613,0.1617,0.1289,0.0164,-0.0604,-0.0802,-0.1064,-0.1131,-0.1259,-0.102,-0.1001,-0.0983,-0.101,-0.1174,-0.1175,-0.1557,-0.1561,-0.1564]}],[{"header":{"parameterUnit":"m.s-1","parameterCategory":2,"la1":30.2991,"la2":30.254,"lo1":-89.0895,"lo2":-89.0444,"dy":0.0017,"dx":0.0017,"nx":28,"ny":28,"refTime":"2025-08-08T09:00:00:Z","depth":"2","parameterNumber":2,"parameterNumberName":"U-component_of_CURRENTS"},"data":[0,0,0,0,0,0,0,0,0,0,0,0,0,0,0,0,0,0,0,0,0,0,0,0,0,0,0,0,0,0,0,0,0,0,0,0,0,0,0,0,0,0,0,0,0,0,0,0,0,0,0,0,0,0,0,0,0,0,0.2545,0.2545,0,0.2565,0.2565,0.2565,0.2561,0.2561,0.2561,0.256,0.2557,0.2557,0.2557,0,0,0,0,0,0,0,0,0,0,0,0,0,0.2504,0.2504,0.2545,0.2545,0.2546,0.2565,0.2565,0.2565,0.2561,0.2561,0.2561,0.256,0.2556,0.2557,0.2557,0,0,0,0,0,0,0,0,0,0,0,0,0,0.2521,0.2505,0.2545,0.2548,0.2548,0.2565,0.2565,0.2565,0.2561,0.2561,0.2561,0.256,0.2556,0.2557,0.2557,0.2563,0,0,0.2557,0.2557,0,0,0,0,0,0,0,0,0.252,0.2522,0.2547,0.2547,0.2548,0.2562,0.2549,0.2564,0.2561,0.2554,0.256,0.256,0.2558,0.2558,0.256,0.2563,0.2563,0.2557,0.2557,0.2557,0.2557,0,0,0,0,0,0,0,0.2519,0.2521,0.2551,0.2547,0.2548,0.2548,0.255,0.2552,0.2555,0.2555,0.2555,0.256,0.2557,0.256,0.2559,0.2563,0.2557,0.2557,0.2557,0.2557,0.2622,0.2624,0,0,0,0,0,0,0.252,0.252,0.255,0.2552,0.2535,0.2549,0.2551,0.2556,0.2556,0.2556,0.2561,0.256,0.2559,0.2559,0.2559,0.2613,0.2557,0.2557,0.2557,0.262,0.2622,0.2624,0,0,0,0,0,0,0.2519,0.2523,0.255,0.2538,0.2541,0.255,0.2556,0.2557,0.2569,0.2561,0.256,0.2573,0.2559,0.2559,0.2578,0.2611,0.2557,0.2557,0.2618,0.2621,0.2623,0.269,0,0,0,0,0,0,0.2518,0.2522,0.2529,0.2538,0.2542,0.2571,0.2557,0.2557,0.2573,0.2573,0.2571,0.257,0.2559,0.2578,0.2578,0.261,0.2557,0.2616,0.262,0.2623,0.2686,0.2695,0.2702,0,0,0,0,0,0.2517,0.2527,0.2529,0.2533,0.255,0.2572,0.2575,0.2578,0.2574,0.2586,0.2588,0.257,0.2598,0.2579,0.2579,0.2612,0.2615,0.2619,0.2622,0.2682,0.2693,0.2702,0,0,0,0,0,0,0.2509,0.2528,0.253,0.2545,0.2563,0.2572,0.2585,0.2587,0.2598,0.26,0.2587,0.2587,0.2619,0.2606,0.2586,0.2641,0.2606,0.2609,0.2651,0.2661,0.2669,0.2686,0.2558,0,0,0,0,0,0.2512,0.2527,0.2544,0.2557,0.2569,0.2579,0.2589,0.2595,0.2605,0.261,0.261,0.2616,0.2633,0.2639,0.2647,0.2672,0.2678,0.2695,0.2703,0.271,0.2725,0.277,0.2783,0.2636,0.2636,0.2636,0,0,0.2512,0.2525,0.2532,0.2557,0.257,0.2596,0.2584,0.2609,0.2633,0.2608,0.2639,0.2644,0.2647,0.268,0.2693,0.2673,0.2755,0.2715,0.2721,0.2732,0.2775,0.2789,0.2802,0.2639,0.2639,0.2638,0,0,0.2523,0.2534,0.2552,0.2573,0.2602,0.2614,0.2625,0.2646,0.2659,0.2688,0.2686,0.2715,0.2724,0.2744,0.2752,0.2811,0.2798,0.2811,0.2864,0.2907,0.292,0.2931,0.2953,0.2965,0.2813,0.2813,0.2813,0,0.2521,0.2547,0.2561,0.2589,0.261,0.2626,0.2654,0.2675,0.2699,0.2722,0.2706,0.276,0.2759,0.2817,0.284,0.2831,0.2845,0.2824,0.2918,0.2929,0.294,0.2959,0.2972,0.2817,0.2816,0.2816,0.2816,0,0.2547,0.2573,0.2589,0.2628,0.2653,0.2683,0.2715,0.2746,0.2761,0.2781,0.2839,0.2848,0.2882,0.289,0.2882,0.2962,0.2944,0.2925,0.2893,0.2959,0.2975,0.2987,0.2822,0.2821,0.282,0.2819,0,0,0.2529,0.2593,0.2599,0.2623,0.2678,0.2697,0.2755,0.2808,0.2846,0.2879,0.2932,0.2976,0.2987,0.2999,0.3001,0.304,0.3121,0.3018,0.3019,0.3039,0.3209,0.315,0.3157,0.3119,0.3121,0.3124,0.3189,0,0.2544,0.2594,0.2629,0.268,0.2708,0.2754,0.2801,0.2853,0.2895,0.2949,0.299,0.3035,0.3026,0.3047,0.3093,0.3114,0.3157,0.3104,0.3143,0.3145,0.3084,0.3172,0.2924,0.2959,0.3201,0.3203,0.3205,0,0.2556,0.2588,0.2637,0.2704,0.2721,0.2756,0.2836,0.2884,0.2973,0.3011,0.308,0.3103,0.3184,0.3153,0.3246,0.3213,0.3227,0.3236,0.3238,0.3171,0.311,0.2934,0.2972,0.3225,0.3223,0.3222,0.3221,0,0.2522,0.2594,0.263,0.2653,0.273,0.2766,0.2813,0.2899,0.2951,0.3055,0.3101,0.3189,0.3235,0.3283,0.3311,0.3288,0.3395,0.3357,0.332,0.3314,0.3106,0.3078,0.3431,0.3431,0.3431,0.343,0.343,0,0.2516,0.2544,0.2615,0.2631,0.2679,0.2743,0.2806,0.2875,0.2976,0.3032,0.3127,0.3184,0.3273,0.3335,0.3349,0.338,0.343,0.3355,0.3342,0.3121,0.3095,0.3322,0.3308,0.3433,0.3432,0.3432,0.3431,0,0.2467,0.2517,0.2557,0.2635,0.2661,0.2692,0.2794,0.2835,0.2949,0.3029,0.3067,0.3208,0.3291,0.336,0.3438,0.3421,0.3452,0.3444,0.3174,0.3128,0.3329,0.3319,0.3418,0.3417,0.3415,0.3415,0.3414,0,0.2445,0.2461,0.2537,0.2554,0.2587,0.2646,0.268,0.2805,0.2855,0.3022,0.3051,0.3185,0.3247,0.3361,0.3369,0.3403,0.3447,0.3173,0.3091,0.3359,0.3336,0.3327,0.3317,0.2834,0.2828,0.2824,0.282,0,0.2397,0.2425,0.2452,0.2488,0.2521,0.256,0.2626,0.2663,0.2797,0.2877,0.2976,0.3048,0.318,0.3118,0.3185,0.3162,0.315,0.3085,0.3448,0.2881,0.2815,0.279,0.2799,0.2781,0.2785,0.2788,0.279,0.2791,0.2352,0.2354,0.2387,0.2411,0.2441,0.245,0.2447,0.252,0.2582,0.266,0.2803,0.2829,0.29,0.2887,0.2819,0.2777,0.2992,0.2846,0.2857,0.2872,0.2799,0.2736,0.2672,0.2675,0.2678,0.268,0.2682,0,0.2286,0.2295,0.2308,0.2318,0.2297,0.2358,0.2384,0.2354,0.2363,0.2463,0.2529,0.2383,0.2372,0.2433,0.2328,0.2354,0.2302,0.2241,0.214,0.2183,0.2221,0.211,0.1802,0.1799,0.1796,0.1793,0,0,0.2253,0.223,0.223,0.2167,0.2172,0.2113,0.2101,0.208,0.2113,0.2086,0.2087,0.2267,0.2375,0.2049,0.2029,0.1889,0.2008,0.1817,0.2534,0.2458,0.2491,0.2595,0.2478,0,0,0,0,0]},{"header":{"parameterUnit":"m.s-1","parameterCategory":2,"la1":30.2991,"la2":30.254,"lo1":-89.0895,"lo2":-89.0444,"dy":0.0017,"dx":0.0017,"nx":28,"ny":28,"refTime":"2025-08-08T09:00:00:Z","depth":"2","parameterNumber":3,"parameterNumberName":"V-component_of_CURRENTS"},"data":[0,0,0,0,0,0,0,0,0,0,0,0,0,0,0,0,0,0,0,0,0,0,0,0,0,0,0,0,0,0,0,0,0,0,0,0,0,0,0,0,0,0,0,0,0,0,0,0,0,0,0,0,0,0,0,0,0,0,0.0032,0.0031,0,-0.0024,-0.0025,-0.0025,-0.0064,-0.0064,-0.0065,-0.0065,-0.0139,-0.0141,-0.0143,0,0,0,0,0,0,0,0,0,0,0,0,0,0.0054,0.0054,0.0032,0.0031,0.0031,-0.0024,-0.0025,-0.0026,-0.0064,-0.0064,-0.0065,-0.0065,-0.0138,-0.0141,-0.0143,0,0,0,0,0,0,0,0,0,0,0,0,0,0.0025,0.0054,0.0032,0.0006,0.0004,-0.0024,-0.0025,-0.0026,-0.0064,-0.0064,-0.0065,-0.0065,-0.0138,-0.014,-0.0143,-0.0156,0,0,-0.0152,-0.0153,0,0,0,0,0,0,0,0,0.0026,0.0024,0.0011,0.0008,0.0005,-0.0036,-0.0044,-0.007,-0.0064,-0.004,-0.0065,-0.0065,-0.0105,-0.011,-0.0123,-0.016,-0.0163,-0.0152,-0.0153,-0.0155,-0.0155,0,0,0,0,0,0,0,0.0029,0.0026,0.0008,0.001,0.0007,-0.002,-0.0024,-0.0049,-0.0072,-0.0042,-0.0045,-0.0048,-0.0107,-0.012,-0.0125,-0.0164,-0.0152,-0.0154,-0.0156,-0.0157,-0.0211,-0.0211,0,0,0,0,0,0,0.0042,0.0028,0.001,0.0007,0.0017,-0.002,-0.0024,-0.0024,-0.0072,-0.0079,-0.0048,-0.005,-0.0115,-0.0121,-0.0127,-0.0131,-0.0155,-0.0157,-0.0159,-0.0212,-0.0211,-0.0211,0,0,0,0,0,0,0.0043,0.0041,0.0012,0.0017,0.0012,-0.0019,-0.0019,-0.0025,-0.0035,-0.0076,-0.0083,-0.0051,-0.0115,-0.0124,-0.0142,-0.0135,-0.0159,-0.0161,-0.0212,-0.0211,-0.0211,-0.0149,0,0,0,0,0,0,0.0044,0.0042,0.0045,0.0018,0.0012,0.0006,-0.0019,-0.0026,-0.0036,-0.0039,-0.0081,-0.0088,-0.0116,-0.0137,-0.0144,-0.0139,-0.0163,-0.0212,-0.0212,-0.0211,-0.0151,-0.0146,-0.0142,0,0,0,0,0,0.0045,0.0057,0.0046,0.0044,0.0019,0.0007,0.0001,-0.0024,-0.0035,-0.0034,-0.0062,-0.0087,-0.014,-0.0139,-0.0148,-0.0143,-0.0212,-0.0212,-0.0211,-0.0153,-0.0147,-0.0142,0,0,0,0,0,0,0.0068,0.0053,0.0041,0.0047,0.0031,0.0001,-0.0,-0.0018,-0.004,-0.0042,-0.0083,-0.0091,-0.0106,-0.0133,-0.0131,-0.0158,-0.0181,-0.0182,-0.0134,-0.0129,-0.0124,-0.0103,-0.0166,0,0,0,0,0,0.0076,0.008,0.0059,0.0063,0.0058,0.0029,0.0021,0.0006,-0.0017,-0.0027,-0.0056,-0.0087,-0.0112,-0.0125,-0.0152,-0.0165,-0.019,-0.0169,-0.0164,-0.016,-0.0149,-0.0183,-0.0181,-0.0209,-0.0209,-0.0209,0,0,0.0086,0.0078,0.008,0.0068,0.0053,0.0058,0.0023,0.0018,0.0021,-0.0031,-0.0037,-0.0072,-0.0112,-0.0126,-0.0136,-0.0147,-0.0165,-0.016,-0.0156,-0.0147,-0.0183,-0.018,-0.0177,-0.0209,-0.0209,-0.0209,0,0,0.0115,0.0102,0.0118,0.011,0.0096,0.008,0.0083,0.0057,0.0044,0.0032,-0.0004,-0.0031,-0.007,-0.0095,-0.0114,-0.0101,-0.0141,-0.0114,-0.0074,-0.0107,-0.0105,-0.0103,-0.0128,-0.0129,-0.0111,-0.0111,-0.0111,0,0.0128,0.0146,0.012,0.0134,0.0137,0.0097,0.0118,0.0098,0.0069,0.0065,0.004,-0.0016,-0.0053,-0.0068,-0.0067,-0.009,-0.0113,-0.0089,-0.01,-0.0099,-0.0098,-0.0124,-0.0126,-0.0108,-0.0109,-0.0109,-0.0109,0,0.017,0.0184,0.0193,0.0199,0.0197,0.0207,0.0183,0.0175,0.0152,0.013,0.0107,0.0051,0.002,-0.0002,-0.0032,-0.0044,-0.0064,-0.009,-0.011,-0.0092,-0.012,-0.0123,-0.0104,-0.0105,-0.0106,-0.0107,0,0,0.0206,0.0221,0.0225,0.0245,0.0235,0.0242,0.0246,0.0243,0.0253,0.0204,0.0209,0.0149,0.0112,0.0089,0.0041,0.0007,-0.0015,-0.0035,-0.0038,-0.0051,-0.0083,-0.0093,-0.0098,-0.0046,-0.0046,-0.0046,-0.0103,0,0.0249,0.0297,0.029,0.0335,0.0361,0.0332,0.0342,0.033,0.0307,0.0298,0.0231,0.0213,0.0148,0.0133,0.0089,0.0015,-0.0021,0.0004,-0.0105,-0.0108,-0.0114,-0.0101,-0.008,-0.0129,-0.0107,-0.0107,-0.0108,0,0.0299,0.0327,0.038,0.0415,0.0423,0.0436,0.0453,0.0458,0.0427,0.0407,0.0369,0.0317,0.0263,0.0201,0.0087,0.0105,0.0021,-0.0045,-0.0049,-0.0081,-0.0124,-0.0146,-0.0136,-0.0113,-0.0113,-0.0112,-0.0112,0,0.035,0.0395,0.0443,0.0453,0.0477,0.0493,0.0501,0.0489,0.0512,0.0476,0.0484,0.0401,0.0369,0.0254,0.0117,0.0102,-0.0012,-0.0051,-0.014,-0.0142,-0.0155,-0.0157,-0.0132,-0.0132,-0.0132,-0.0132,-0.0132,0,0.0406,0.0446,0.0469,0.0495,0.0556,0.0547,0.06,0.0591,0.0597,0.0633,0.0544,0.0553,0.038,0.0294,0.0153,0.0006,0.0015,-0.0125,-0.0156,-0.0133,-0.0132,-0.0145,-0.0146,-0.0134,-0.0133,-0.0133,-0.0133,0,0.0457,0.047,0.0529,0.0564,0.0582,0.0621,0.0676,0.0714,0.0703,0.0746,0.0742,0.0672,0.056,0.0387,0.0204,0.0068,-0.0082,-0.0139,-0.0096,-0.012,-0.02,-0.0197,-0.024,-0.0241,-0.0242,-0.0242,-0.0243,0,0.0487,0.0523,0.0583,0.0623,0.064,0.0698,0.0744,0.0762,0.0812,0.0826,0.0858,0.0771,0.0726,0.0459,0.021,-0.0027,-0.0071,-0.0175,-0.0205,-0.0184,-0.021,-0.0206,-0.0202,-0.0201,-0.0201,-0.0201,-0.0201,0,0.0546,0.0561,0.0607,0.069,0.0745,0.0823,0.0888,0.0949,0.0973,0.1013,0.1046,0.1014,0.0769,0.0543,0.0214,0.0042,-0.0137,-0.0184,-0.0174,-0.0172,-0.0151,-0.0175,-0.0172,-0.0202,-0.0202,-0.0202,-0.0201,-0.0201,0.0585,0.0626,0.0682,0.0761,0.0834,0.0927,0.0995,0.1076,0.1166,0.1222,0.119,0.1141,0.0883,0.0475,0.0187,-0.0131,-0.0122,-0.0243,-0.0241,-0.024,-0.0221,-0.0201,-0.0258,-0.0258,-0.0258,-0.0258,-0.0258,0,0.0631,0.0676,0.0751,0.0841,0.0924,0.0958,0.1081,0.1149,0.1258,0.1311,0.1336,0.1086,0.0838,0.0528,0.0075,-0.0192,-0.0226,-0.0294,-0.0267,-0.0264,-0.0262,-0.0244,-0.0287,-0.0288,-0.0289,-0.029,0,0,0.0654,0.0726,0.076,0.0894,0.0965,0.1078,0.115,0.1252,0.1319,0.1367,0.1345,0.1304,0.0938,0.0612,0.0247,-0.0016,-0.0088,-0.0084,-0.0033,0.0045,0.005,-0.0205,-0.017,0,0,0,0,0]}],[{"header":{"parameterUnit":"m.s-1","parameterCategory":2,"la1":30.2991,"la2":30.254,"lo1":-89.0895,"lo2":-89.0444,"dy":0.0017,"dx":0.0017,"nx":28,"ny":28,"refTime":"2025-08-08T09:00:00:Z","depth":"4","parameterNumber":2,"parameterNumberName":"U-component_of_CURRENTS"},"data":[0,0,0,0,0,0,0,0,0,0,0,0,0,0,0,0,0,0,0,0,0,0,0,0,0,0,0,0,0,0,0,0,0,0,0,0,0,0,0,0,0,0,0,0,0,0,0,0,0,0,0,0,0,0,0,0,0,0,0.1698,0.1698,0,0.1758,0.1758,0.1759,0.1813,0.1814,0.1815,0.1815,0.1885,0.1886,0.1887,0,0,0,0,0,0,0,0,0,0,0,0,0,0.1619,0.162,0.1698,0.1699,0.1699,0.1758,0.1758,0.1759,0.1813,0.1814,0.1815,0.1816,0.1884,0.1885,0.1887,0,0,0,0,0,0,0,0,0,0,0,0,0,0.1662,0.1621,0.1697,0.1735,0.1739,0.1757,0.1758,0.1759,0.1813,0.1814,0.1815,0.1816,0.1884,0.1885,0.1887,0.1873,0,0,0.1892,0.1893,0,0,0,0,0,0,0,0,0.166,0.1665,0.1728,0.1732,0.1737,0.1781,0.1756,0.1798,0.1812,0.1783,0.1815,0.1817,0.1851,0.1855,0.1861,0.1876,0.1879,0.1892,0.1893,0.1894,0.1894,0,0,0,0,0,0,0,0.1657,0.1662,0.172,0.1729,0.1734,0.1745,0.1752,0.1764,0.1808,0.1785,0.179,0.1799,0.1853,0.186,0.1863,0.188,0.1892,0.1893,0.1895,0.1895,0.2001,0.2003,0,0,0,0,0,0,0.1652,0.166,0.1718,0.1722,0.1702,0.1745,0.1754,0.1764,0.1808,0.1816,0.1798,0.1801,0.1856,0.1861,0.1866,0.1952,0.1894,0.1895,0.1896,0.1999,0.2002,0.2004,0,0,0,0,0,0,0.165,0.1656,0.1715,0.1693,0.1702,0.1746,0.1757,0.1765,0.1809,0.1818,0.1826,0.1839,0.1857,0.1864,0.1914,0.1951,0.1896,0.1898,0.1997,0.2,0.2003,0.2059,0,0,0,0,0,0,0.1647,0.1655,0.1678,0.1693,0.1703,0.1751,0.1756,0.1765,0.1811,0.1817,0.1855,0.186,0.1859,0.1912,0.1916,0.1952,0.1899,0.1995,0.1999,0.2002,0.2055,0.2064,0.2071,0,0,0,0,0,0.1644,0.1664,0.1679,0.1687,0.1727,0.1752,0.1759,0.1792,0.1812,0.1836,0.1868,0.1861,0.1937,0.1915,0.1919,0.1957,0.1993,0.1998,0.2002,0.2051,0.2062,0.2071,0,0,0,0,0,0,0.1642,0.1671,0.1688,0.1717,0.1746,0.1763,0.1793,0.1812,0.1855,0.1874,0.1881,0.1889,0.1947,0.1945,0.1921,0.1999,0.1965,0.197,0.2002,0.2012,0.2019,0.2016,0.19,0,0,0,0,0,0.165,0.1677,0.1702,0.173,0.1748,0.1778,0.18,0.1823,0.1853,0.1875,0.1902,0.1933,0.196,0.1982,0.2003,0.2042,0.2045,0.2072,0.208,0.2086,0.2088,0.2122,0.2133,0.2017,0.2017,0.2017,0,0,0.1658,0.1679,0.1696,0.1733,0.176,0.1787,0.1795,0.184,0.1871,0.1874,0.194,0.1963,0.1978,0.2026,0.2052,0.2034,0.2125,0.2092,0.2097,0.2095,0.2128,0.2139,0.2149,0.202,0.202,0.2019,0,0,0.167,0.1707,0.1729,0.1757,0.1804,0.1821,0.1842,0.1883,0.1917,0.197,0.1985,0.2033,0.2075,0.2094,0.2105,0.2169,0.2166,0.2185,0.2223,0.2257,0.2266,0.2275,0.2307,0.2317,0.2189,0.2189,0.2189,0,0.1681,0.171,0.1741,0.1769,0.1797,0.184,0.1868,0.1904,0.1959,0.1991,0.2003,0.2087,0.2103,0.2155,0.2183,0.2186,0.2206,0.2183,0.2266,0.2274,0.2282,0.2313,0.2324,0.2192,0.2192,0.2191,0.2191,0,0.1698,0.1736,0.1756,0.1804,0.1837,0.1874,0.1919,0.1971,0.2019,0.2049,0.2129,0.2158,0.2207,0.2224,0.2224,0.2292,0.229,0.2271,0.2238,0.2297,0.2326,0.2336,0.2197,0.2195,0.2195,0.2194,0,0,0.1675,0.1752,0.1762,0.1793,0.1862,0.1886,0.1954,0.2014,0.2066,0.213,0.2194,0.225,0.2281,0.2296,0.2313,0.2343,0.2419,0.2339,0.2339,0.2364,0.2506,0.235,0.2347,0.242,0.2422,0.2424,0.2509,0,0.1681,0.1732,0.1773,0.1832,0.1862,0.1928,0.1982,0.2049,0.2112,0.2187,0.2238,0.2306,0.2304,0.2346,0.2378,0.2413,0.2448,0.2398,0.245,0.2452,0.2301,0.2353,0.243,0.2517,0.2519,0.2521,0.2522,0,0.1673,0.1713,0.1768,0.185,0.1872,0.192,0.202,0.2076,0.2182,0.2237,0.2315,0.236,0.244,0.2421,0.2509,0.2483,0.2504,0.2518,0.2521,0.2358,0.2314,0.2444,0.254,0.2539,0.2538,0.2536,0.2535,0,0.1622,0.1706,0.1752,0.1781,0.188,0.1932,0.1995,0.2098,0.2161,0.2283,0.2346,0.2431,0.25,0.2537,0.2582,0.2561,0.2662,0.263,0.2508,0.2498,0.2587,0.2577,0.2682,0.2682,0.2682,0.2682,0.2682,0,0.159,0.1632,0.1742,0.1766,0.1838,0.1917,0.2005,0.2084,0.2203,0.227,0.2377,0.2436,0.2536,0.2603,0.2616,0.2596,0.2695,0.252,0.2507,0.2612,0.2603,0.2595,0.2584,0.2685,0.2684,0.2684,0.2683,0,0.152,0.1591,0.1654,0.1772,0.1816,0.1871,0.2012,0.2067,0.2196,0.2292,0.2341,0.2479,0.2554,0.263,0.2702,0.263,0.2629,0.2598,0.2726,0.2718,0.2436,0.2427,0.2458,0.2454,0.245,0.2446,0.2443,0,0.1484,0.1511,0.1646,0.169,0.1752,0.1848,0.191,0.2051,0.2107,0.2286,0.2316,0.2454,0.2522,0.2504,0.2588,0.2606,0.2574,0.256,0.2468,0.2427,0.2413,0.241,0.2407,0.2437,0.2436,0.2435,0.2434,0,0.1417,0.1483,0.1537,0.1628,0.1705,0.1772,0.1873,0.1902,0.205,0.2192,0.2234,0.2274,0.2356,0.2398,0.2442,0.2444,0.2555,0.2516,0.2523,0.2437,0.2402,0.239,0.2392,0.2419,0.2421,0.2423,0.2424,0,0.1376,0.1398,0.1482,0.1548,0.1636,0.1663,0.1729,0.1788,0.1862,0.205,0.2056,0.2194,0.2324,0.2316,0.235,0.2348,0.2301,0.2212,0.2234,0.2251,0.2142,0.2064,0.197,0,0,0,0,0,0.1325,0.1338,0.1393,0.1452,0.153,0.158,0.1687,0.1752,0.1894,0.1871,0.1956,0.2014,0.2059,0.2134,0.209,0.2265,0.2317,0.2203,0.2228,0.2341,0.2357,0.2246,0,0,0,0,0,0,0.1289,0.1339,0.1356,0.1355,0.1376,0.1443,0.1503,0.1598,0.1591,0.1743,0.1779,0.1895,0.1975,0.2067,0.2053,0.2077,0.205,0.2295,0.2289,0.2331,0.2346,0.2359,0.2251,0,0,0,0,0]},{"header":{"parameterUnit":"m.s-1","parameterCategory":2,"la1":30.2991,"la2":30.254,"lo1":-89.0895,"lo2":-89.0444,"dy":0.0017,"dx":0.0017,"nx":28,"ny":28,"refTime":"2025-08-08T09:00:00:Z","depth":"4","parameterNumber":3,"parameterNumberName":"V-component_of_CURRENTS"},"data":[0,0,0,0,0,0,0,0,0,0,0,0,0,0,0,0,0,0,0,0,0,0,0,0,0,0,0,0,0,0,0,0,0,0,0,0,0,0,0,0,0,0,0,0,0,0,0,0,0,0,0,0,0,0,0,0,0,0,0.0055,0.0055,0,0.0017,0.0017,0.0016,-0.0013,-0.0013,-0.0014,-0.0014,-0.007,-0.0071,-0.0072,0,0,0,0,0,0,0,0,0,0,0,0,0,0.0067,0.0067,0.0055,0.0055,0.0054,0.0018,0.0017,0.0016,-0.0013,-0.0013,-0.0014,-0.0014,-0.0069,-0.0071,-0.0072,0,0,0,0,0,0,0,0,0,0,0,0,0,0.0048,0.0067,0.0055,0.0036,0.0034,0.0018,0.0017,0.0016,-0.0013,-0.0013,-0.0014,-0.0014,-0.0069,-0.0071,-0.0072,-0.0079,0,0,-0.0079,-0.0079,0,0,0,0,0,0,0,0,0.0049,0.0047,0.0039,0.0037,0.0035,0.0008,0.0001,-0.0016,-0.0013,0.0003,-0.0014,-0.0014,-0.0044,-0.0048,-0.0056,-0.0082,-0.0084,-0.0079,-0.008,-0.0081,-0.0081,0,0,0,0,0,0,0,0.005,0.0048,0.0039,0.0039,0.0036,0.0018,0.0015,-0.0003,-0.002,0.0002,0.0,-0.0002,-0.0046,-0.0054,-0.0058,-0.0085,-0.0079,-0.008,-0.0082,-0.0082,-0.0116,-0.0115,0,0,0,0,0,0,0.0059,0.005,0.004,0.0038,0.0043,0.0018,0.0015,0.0016,-0.0019,-0.0024,-0.0002,-0.0003,-0.0051,-0.0056,-0.006,-0.0054,-0.0081,-0.0083,-0.0084,-0.0116,-0.0115,-0.0115,0,0,0,0,0,0,0.006,0.0059,0.0042,0.0044,0.004,0.0018,0.0019,0.0015,0.0009,-0.0022,-0.0028,-0.0003,-0.0051,-0.0057,-0.0069,-0.0057,-0.0083,-0.0085,-0.0116,-0.0116,-0.0115,-0.0052,0,0,0,0,0,0,0.006,0.0059,0.0063,0.0045,0.0041,0.004,0.002,0.0015,0.0008,0.0006,-0.0025,-0.0031,-0.0052,-0.0066,-0.0071,-0.006,-0.0087,-0.0117,-0.0116,-0.0115,-0.0055,-0.005,-0.0045,0,0,0,0,0,0.0061,0.0072,0.0064,0.0062,0.0047,0.0041,0.0037,0.0019,0.0009,0.0011,-0.0009,-0.0029,-0.0066,-0.0067,-0.0073,-0.0063,-0.0117,-0.0116,-0.0115,-0.0057,-0.0051,-0.0045,0,0,0,0,0,0,0.0079,0.0069,0.006,0.0067,0.0057,0.0036,0.0037,0.0024,0.0009,0.0007,-0.0024,-0.0031,-0.0039,-0.006,-0.006,-0.0072,-0.0095,-0.0096,-0.0049,-0.0043,-0.0038,-0.002,-0.0088,0,0,0,0,0,0.0085,0.0091,0.0076,0.0082,0.0079,0.0058,0.0053,0.0042,0.0026,0.0019,-0.0002,-0.0025,-0.0041,-0.0048,-0.0069,-0.0072,-0.0099,-0.0071,-0.0066,-0.0062,-0.0052,-0.0082,-0.0079,-0.0113,-0.0113,-0.0113,0,0,0.0094,0.0089,0.0092,0.0086,0.0076,0.0084,0.0054,0.0053,0.006,0.0016,0.0018,-0.0011,-0.004,-0.0044,-0.0049,-0.0059,-0.0068,-0.0061,-0.0057,-0.0049,-0.0081,-0.0077,-0.0074,-0.0112,-0.0113,-0.0113,0,0,0.012,0.011,0.0126,0.0122,0.0113,0.0103,0.0106,0.0088,0.0081,0.0076,0.0047,0.003,0.0003,-0.0011,-0.0023,-0.0005,-0.0045,-0.0016,0.0027,-0.0002,0.0001,0.0003,-0.0029,-0.0031,-0.001,-0.001,-0.001,0,0.0131,0.0149,0.0129,0.0143,0.0149,0.0117,0.0138,0.0127,0.0108,0.0107,0.0085,0.0048,0.0021,0.0022,0.0027,0.0008,-0.0019,0.0011,0.0006,0.0007,0.0008,-0.0026,-0.0028,-0.0007,-0.0007,-0.0007,-0.0008,0,0.0169,0.0183,0.0193,0.0203,0.0205,0.0216,0.0202,0.0199,0.0182,0.0168,0.0156,0.0116,0.0096,0.0082,0.0061,0.006,0.0034,0.0013,-0.0005,0.0016,-0.0022,-0.0026,-0.0002,-0.0003,-0.0004,-0.0005,0,0,0.0196,0.0216,0.0221,0.0239,0.0239,0.0247,0.026,0.0264,0.0275,0.0241,0.0249,0.0215,0.0184,0.0169,0.0134,0.0111,0.0091,0.0072,0.0068,0.0046,0.0023,0.001,0.0004,0.0067,0.0067,0.0067,-0.0008,0,0.0233,0.0278,0.0278,0.0322,0.0344,0.0328,0.0345,0.0341,0.0326,0.0321,0.0276,0.0265,0.022,0.0209,0.0179,0.0112,0.0086,0.0113,0.0,-0.0003,-0.0012,0.0001,0.0067,-0.0011,-0.0012,-0.0012,-0.0013,0,0.0273,0.0299,0.0351,0.0387,0.0395,0.0415,0.0436,0.0447,0.0429,0.0413,0.0389,0.0348,0.0312,0.0266,0.017,0.0188,0.0116,0.006,0.0055,0.0021,-0.0022,-0.0037,-0.002,-0.0019,-0.0019,-0.0018,-0.0018,0,0.0305,0.0353,0.0398,0.0409,0.044,0.0461,0.0475,0.0475,0.0494,0.0471,0.0473,0.0415,0.0386,0.0294,0.0179,0.0173,0.0064,0.0037,-0.0042,-0.0045,-0.0039,-0.0041,-0.0028,-0.0028,-0.0028,-0.0028,-0.0027,0,0.0345,0.0382,0.0417,0.044,0.0497,0.0502,0.0551,0.055,0.056,0.0585,0.0524,0.052,0.0392,0.0314,0.0201,0.0071,0.0077,-0.0029,-0.0061,-0.0012,-0.001,-0.0042,-0.0043,-0.003,-0.003,-0.0029,-0.0029,0,0.0371,0.0394,0.0448,0.0493,0.0514,0.055,0.0607,0.0638,0.0637,0.0665,0.0663,0.06,0.0495,0.0361,0.0206,0.0106,-0.0021,-0.007,-0.0005,-0.0033,-0.0119,-0.0115,-0.0164,-0.0165,-0.0166,-0.0166,-0.0167,0,0.0388,0.0419,0.0486,0.0521,0.0545,0.0602,0.0644,0.0671,0.0705,0.0712,0.0727,0.0648,0.0583,0.0363,0.021,-0.0003,-0.0038,-0.0112,-0.0116,-0.0104,-0.013,-0.0126,-0.0121,-0.0168,-0.0168,-0.0169,-0.0169,0,0.0416,0.0438,0.0479,0.0554,0.0608,0.0675,0.0734,0.0767,0.0794,0.0802,0.0779,0.0668,0.0548,0.0371,0.0205,0.005,-0.0068,-0.0121,-0.0121,-0.0125,-0.011,-0.0134,-0.0129,-0.0172,-0.0171,-0.0171,-0.0171,0,0.043,0.046,0.0511,0.0577,0.0651,0.0717,0.0752,0.0792,0.0827,0.0834,0.0824,0.0695,0.0624,0.0398,0.0246,0.0093,0.0046,-0.0017,-0.0023,-0.0022,0.0037,0.0078,0.0054,0,0,0,0,0,0.0439,0.0468,0.053,0.0599,0.0675,0.0719,0.0799,0.0827,0.0859,0.0851,0.0841,0.073,0.051,0.042,0.0265,0.0214,0.0009,0.0024,-0.007,-0.0188,-0.0184,-0.014,0,0,0,0,0,0,0.0439,0.0492,0.0522,0.0605,0.0657,0.0742,0.0794,0.0821,0.0819,0.0829,0.0723,0.0674,0.0468,0.0598,0.0257,0.0211,0.0125,-0.0072,-0.0076,-0.019,-0.0187,-0.0184,-0.0138,0,0,0,0,0]}]]